Location: Gollag?dem
(16.8053°N, 80.8024°E)
Time: 14:23:00
(UTC+00:00)

USA 267 - Pass Details

Date: 13 August 2020
Orbit: 1101 x 1106 km, 123.0° (Epoch: 22 September)

Event Time Altitude Azimuth Distance (km) Brightness Sun altitude
Rises 14:17:30 0° 33° (NNE) 3,917 6.0 -17.8°
Reaches altitude 10° 14:19:59 10° 31° (NNE) 2,959 5.4 -18.3°
Maximum altitude 14:26:29 71° 309° (NW) 1,162 3.5 -19.7°
Drops below altitude 10° 14:32:59 10° 226° (SW) 2,958 5.8 -21.2°
Sets 14:35:28 0° 224° (SW) 3,915 6.4 -21.7°
